GFSSW_925_thetae_114.txt.gz
Theta_e
314 314 315 317 318 318 319 320 323 322 321 322 328 327 325 324 321 320 322 322 322 321 324 326 317 316 315 319 320 321 324 329 328 328 325 324 325 322 323 328 328 329 331 334 334
314 313 313 315 317 318 318 319 321 323 322 321 326 325 325 324 319 322 322 322 321 322 325 321 320 316 317 320 321 324 326 328 325 321 320 323 324 322 324 326 328 329 335 335 335
313 313 313 313 314 317 318 317 320 322 322 322 324 325 325 323 320 323 322 321 321 321 323 327 318 321 320 320 321 323 325 327 323 319 319 319 320 322 323 324 325 328 334 334 333
313 312 312 313 314 314 317 317 316 321 322 322 324 322 322 321 327 321 322 322 320 320 321 327 322 324 324 322 322 323 324 324 319 317 318 319 318 319 320 322 320 323 333 332 333
312 311 312 313 314 314 314 315 314 317 320 322 323 320 319 320 323 320 322 322 321 320 321 327 327 322 325 323 322 324 326 327 318 316 317 317 318 318 318 319 320 329 333 331 332
312 312 312 313 312 313 314 314 314 311 317 320 324 322 319 323 321 321 319 321 321 320 321 324 328 325 324 324 322 322 323 321 317 318 318 319 320 317 319 318 320 329 330 331 331
311 311 310 311 312 313 313 314 313 312 309 317 322 322 321 322 320 322 319 320 321 320 322 323 326 325 325 326 322 322 323 320 318 318 320 319 322 318 317 319 320 324 328 330 331
310 310 309 311 312 312 313 314 314 313 310 311 319 322 323 320 320 321 320 321 321 321 322 323 323 322 323 321 321 322 324 324 322 321 319 321 326 325 321 317 319 320 324 331 331
309 309 308 309 311 310 310 314 315 315 312 314 316 316 320 320 320 321 320 321 321 320 322 323 323 324 322 326 329 326 329 327 328 323 321 319 327 325 322 317 318 318 321 328 331
308 308 308 309 310 310 309 312 316 315 314 314 315 316 315 321 320 321 320 321 319 320 322 322 322 324 325 329 336 333 330 329 328 327 323 322 320 322 317 316 318 318 318 325 328
308 308 308 309 308 308 311 315 314 314 314 315 314 314 316 319 320 320 320 319 319 322 325 324 326 327 326 328 330 330 330 331 328 322 322 322 324 324 322 315 315 316 316 321 328
307 307 308 308 308 309 312 314 313 314 316 314 314 314 314 318 322 320 319 321 323 325 323 325 328 324 324 326 328 330 330 331 329 316 317 321 323 322 322 323 321 315 315 316 321
305 306 308 307 308 309 311 312 313 314 316 316 314 314 315 317 322 321 320 321 323 324 324 324 322 323 325 325 328 330 331 329 331 321 321 322 324 325 325 321 318 317 315 315 317
307 308 308 308 309 308 310 311 312 313 316 317 317 315 314 314 323 319 320 321 323 324 323 322 320 323 323 325 325 330 328 328 328 328 332 322 328 327 326 326 323 318 313 312 313
308 308 308 308 309 310 309 311 312 312 317 315 315 313 313 314 321 320 319 320 323 322 323 324 321 325 326 326 326 328 326 327 322 325 325 328 327 325 324 325 324 323 317 314 312
306 306 306 307 308 309 310 311 312 317 318 316 317 316 316 316 321 320 321 319 320 322 322 320 317 322 325 325 324 319 320 320 320 325 330 327 327 326 325 323 323 323 320 318 315
304 304 306 307 307 308 310 311 313 316 311 313 317 318 317 317 322 322 323 322 324 326 324 321 323 316 320 324 318 321 325 326 330 329 330 319 325 326 322 320 321 320 317 315 316
304 303 305 306 306 306 307 312 312 313 314 310 314 320 319 317 322 323 323 322 321 320 322 324 323 319 321 323 322 324 324 323 326 327 324 312 322 323 322 319 314 313 314 314 310
304 305 305 305 306 306 306 306 312 311 312 313 316 321 321 323 322 323 321 321 322 318 320 321 321 316 320 318 320 322 326 320 318 308 318 318 317 317 317 314 311 310 311 312 310
303 304 304 304 304 305 304 305 308 307 309 315 320 321 320 320 322 323 322 321 321 318 316 317 320 315 311 318 316 321 319 324 322 321 323 321 321 320 316 316 314 312 312 311 310
302 303 304 304 304 304 305 305 305 306 308 311 319 321 317 318 319 322 322 322 320 319 316 316 318 317 315 320 320 320 322 322 322 322 322 322 318 312 316 314 313 307 307 308 308
303 303 304 304 304 305 305 305 304 306 307 309 312 318 316 318 321 322 321 322 319 318 318 316 316 316 317 312 316 318 322 320 324 322 319 319 318 310 308 308 308 308 308 309 309
299 302 301 303 305 305 306 305 306 306 308 308 310 318 317 320 322 321 320 318 318 318 317 315 316 318 316 312 311 319 319 320 317 316 318 318 317 311 307 308 308 307 308 308 310
301 304 301 301 303 305 306 306 307 307 307 308 307 318 318 320 320 321 321 319 318 318 315 314 315 316 318 318 314 317 318 318 319 318 318 319 317 309 308 309 307 308 309 309 311
303 303 301 303 304 305 308 308 309 309 309 311 312 319 319 321 321 321 317 319 318 315 313 315 314 315 314 315 315 316 318 319 320 319 319 317 318 315 314 313 313 311 313 314 312
301 301 298 303 303 303 305 306 308 310 312 311 313 319 318 320 319 320 319 319 319 313 312 313 314 312 308 314 315 315 316 317 318 318 318 316 316 314 314 314 313 313 312 311 310
298 297 300 303 303 302 306 306 308 309 310 311 312 318 319 318 317 315 316 315 317 317 315 314 312 315 311 310 311 311 314 315 316 316 317 317 316 311 311 313 313 311 311 311 310

GFSSW_925_thetae_117.txt.gz
Theta_e
313 314 314 315 318 319 319 320 322 323 324 329 330 329 327 324 323 321 320 322 321 321 323 329 319 316 316 317 318 320 320 326 326 326 323 323 322 321 321 326 327 328 331 332 335
314 313 313 313 314 317 318 319 320 323 322 321 328 327 325 324 321 321 321 321 321 321 325 325 318 316 315 318 319 325 322 324 321 318 320 322 321 321 323 326 328 334 333 333 335
313 312 312 312 312 315 318 318 319 321 322 321 321 324 325 324 322 323 322 322 321 321 325 322 319 320 318 318 319 321 326 324 318 317 317 318 319 319 321 324 325 332 334 333 334
313 313 311 312 313 312 315 318 317 320 322 322 325 323 324 322 328 322 322 321 322 321 320 323 319 324 322 320 319 322 321 321 319 316 317 317 316 317 318 320 318 331 333 333 334
312 312 312 312 312 312 313 316 317 317 321 322 324 323 322 321 323 321 322 323 322 321 318 322 320 322 330 326 324 322 322 324 316 315 315 315 317 316 316 315 322 333 332 330 331
312 312 312 311 311 312 314 312 316 315 318 321 322 323 319 324 321 320 321 322 321 321 320 321 322 318 320 325 329 321 321 320 315 315 316 318 317 316 317 313 329 333 330 329 330
312 312 311 310 311 313 313 314 314 315 313 318 322 322 319 319 319 320 321 321 321 321 319 320 325 324 323 325 321 321 322 321 316 317 319 316 319 316 316 316 327 329 329 328 329
311 312 311 310 310 311 311 313 314 314 313 313 319 321 323 320 321 321 321 320 321 321 320 321 323 320 323 320 320 321 322 322 319 317 318 318 324 321 316 315 316 324 327 329 329
311 311 310 310 310 310 311 312 313 314 313 312 315 316 321 320 320 321 320 321 320 321 321 321 323 321 321 323 325 324 326 325 325 319 319 318 323 322 318 314 315 314 322 329 329
311 310 310 309 309 310 311 313 312 314 313 313 313 316 314 321 320 321 321 321 321 321 321 322 322 323 324 324 330 329 329 327 327 323 318 318 319 319 318 314 314 313 315 329 330
310 310 309 308 309 310 310 311 312 312 313 311 313 313 315 319 320 320 320 321 321 322 325 322 325 327 324 324 326 326 327 328 324 322 322 322 320 318 318 315 313 313 313 323 329
310 309 308 307 308 310 310 311 311 310 313 311 312 312 315 319 322 320 320 323 322 325 323 325 326 322 321 324 326 329 329 330 326 318 321 320 321 319 319 320 313 313 313 312 324
308 307 307 307 309 309 310 311 311 309 310 311 312 313 313 315 320 321 321 322 323 324 323 324 322 321 323 325 328 327 330 330 331 316 318 321 321 322 321 319 318 315 313 313 313
307 306 307 308 309 309 310 312 311 311 309 312 314 313 315 314 316 318 320 321 323 324 323 322 319 322 323 325 325 328 326 327 323 325 330 320 326 322 323 322 321 316 312 312 312
306 305 306 308 308 309 309 310 312 310 313 309 313 312 313 316 315 316 320 320 323 323 322 324 320 322 324 324 323 325 324 322 323 323 325 326 326 322 320 322 322 322 315 312 310
305 304 307 307 307 307 308 310 311 312 313 315 314 315 316 314 314 318 320 320 321 322 321 320 317 319 322 321 320 318 321 321 321 324 330 326 327 325 323 323 321 319 321 317 311
306 306 307 307 308 308 309 310 311 314 310 313 315 316 315 316 315 320 322 322 326 325 325 323 322 317 320 322 320 322 326 328 329 330 327 321 325 327 320 319 318 319 316 316 312
307 307 307 307 308 309 309 312 312 310 310 309 315 314 315 314 316 317 321 321 322 322 324 323 324 320 319 323 323 324 324 320 323 325 321 313 323 321 320 320 317 316 316 313 309
305 305 305 306 306 307 309 309 311 306 310 310 314 316 316 314 314 317 316 322 322 321 323 322 322 317 320 318 321 323 326 316 315 303 314 316 315 314 315 316 311 309 309 310 309
304 303 304 305 306 305 305 308 305 306 308 309 316 317 318 316 316 317 318 320 321 320 316 317 321 317 315 318 317 321 319 324 317 318 320 318 317 317 315 315 313 312 310 309 308
302 299 303 304 304 303 304 297 301 306 307 308 311 315 317 317 315 316 316 316 320 320 314 316 318 317 317 322 323 321 323 321 320 317 319 318 317 312 312 315 313 309 307 305 305
297 295 304 304 304 303 299 298 303 303 305 308 307 309 310 317 318 318 317 317 318 319 317 315 316 319 322 311 313 319 322 321 323 322 317 316 316 309 308 308 305 306 307 306 305
298 300 303 303 304 303 301 302 303 302 305 308 308 306 307 313 319 320 318 315 318 319 317 314 316 319 317 317 314 321 320 321 316 315 320 318 317 308 305 305 305 306 306 307 307
299 302 300 302 300 300 299 302 303 304 305 304 307 307 308 309 313 319 320 319 318 319 315 313 315 318 321 321 318 322 321 321 316 316 316 320 314 307 306 306 305 305 305 304 306
297 295 295 303 302 304 303 302 303 303 304 305 304 306 308 309 309 320 320 319 319 318 315 313 314 313 313 315 317 318 319 321 320 318 319 318 315 308 306 305 305 305 305 308 309
300 300 297 300 302 303 304 304 305 305 307 308 307 305 307 308 308 318 321 321 321 317 317 312 315 311 309 313 316 318 318 320 320 319 318 315 316 312 308 309 307 307 308 309 309
298 298 297 302 303 304 303 303 303 304 305 307 308 309 309 309 308 308 317 318 319 318 318 315 311 311 308 310 312 314 318 318 319 318 318 318 315 311 311 310 309 309 308 309 307

GFSSW_925_thetae_123.txt.gz
Theta_e
314 316 314 313 318 320 321 323 323 322 322 325 329 330 330 331 327 323 321 322 324 321 323 324 324 317 316 315 317 315 319 324 325 321 321 320 321 319 321 325 330 331 327 328 332
312 315 316 313 314 318 319 322 323 323 323 324 327 329 330 327 324 322 323 321 322 322 320 324 323 315 314 318 318 319 319 322 322 319 321 320 321 321 325 327 330 332 330 330 333
311 313 315 315 312 316 319 319 322 323 322 325 326 330 328 325 324 324 323 321 321 320 321 324 321 314 317 316 320 322 322 321 319 315 318 319 319 318 323 326 324 328 330 330 333
312 311 314 314 314 312 317 318 319 321 322 325 327 328 327 325 333 324 326 321 321 320 322 320 317 318 319 318 317 323 320 322 319 315 315 318 317 319 321 321 319 324 329 330 331
311 310 312 314 313 311 313 318 318 320 322 322 326 326 323 323 324 321 324 323 322 321 319 320 318 319 324 319 320 320 320 321 320 317 315 313 315 316 315 314 320 328 330 330 331
310 310 311 313 313 311 311 313 318 318 321 321 322 324 322 326 321 321 321 324 323 321 319 319 320 320 324 326 323 323 320 322 317 314 314 314 315 314 315 319 327 329 329 329 329
311 310 309 313 313 311 310 312 316 317 319 321 322 323 321 321 321 322 321 322 321 321 321 320 320 321 318 321 322 326 324 320 317 314 315 316 317 316 314 325 328 329 327 328 329
311 310 309 311 313 311 310 309 314 316 318 319 322 321 321 320 321 322 322 321 322 322 320 320 321 321 321 319 318 324 323 327 320 316 316 316 321 318 314 326 327 327 326 326 327
311 311 308 311 312 310 311 310 312 315 316 318 321 319 320 320 319 321 321 321 320 320 320 320 321 322 319 320 321 318 324 324 324 316 317 317 319 317 315 321 323 325 326 327 326
312 311 309 311 311 310 311 310 311 314 314 316 316 317 314 319 319 320 320 320 321 321 321 321 323 326 323 325 327 322 324 323 325 320 317 317 315 316 317 314 314 317 324 326 327
312 310 309 310 311 310 310 311 311 311 311 309 310 312 313 319 319 319 320 321 321 322 323 321 324 327 327 325 322 320 322 323 321 320 318 319 317 316 315 314 313 310 311 322 326
310 310 310 311 311 310 310 310 309 309 313 309 309 310 313 318 320 319 320 322 321 323 323 323 325 322 324 324 324 324 325 324 322 321 319 321 321 317 315 316 315 315 310 309 315
310 309 309 310 310 310 310 309 309 310 310 309 309 310 311 316 318 321 319 320 322 322 323 324 322 320 323 324 325 323 324 324 325 319 317 319 321 320 316 316 316 315 315 312 311
310 309 308 309 310 311 310 309 309 308 305 309 309 309 310 312 316 318 320 320 322 324 320 321 320 321 323 325 324 325 321 325 326 322 326 319 326 323 320 319 317 318 315 315 311
311 309 309 309 309 310 309 309 308 307 302 305 308 308 310 313 313 316 319 318 321 323 322 323 321 321 323 323 321 323 322 325 323 321 323 325 328 323 319 320 319 319 318 317 314
309 310 310 309 308 308 309 309 308 309 308 309 310 312 314 312 313 315 318 317 317 320 320 320 317 320 321 320 321 319 321 321 320 322 328 324 325 322 321 320 319 318 316 316 315
311 309 309 307 308 308 309 309 311 312 304 312 311 311 311 313 313 315 318 320 322 322 323 322 320 318 318 321 322 322 324 327 329 328 324 317 321 321 318 318 318 319 317 313 313
310 309 308 307 308 309 309 311 312 309 306 310 310 311 311 311 312 314 314 318 318 318 318 321 322 320 319 321 322 323 323 320 324 323 319 317 323 320 318 318 317 314 313 312 311
308 308 307 307 309 309 309 312 310 306 309 312 310 313 312 311 310 312 314 314 314 319 321 323 321 318 318 317 320 323 325 315 314 300 313 316 314 313 312 313 312 312 313 313 311
308 307 307 308 308 308 309 310 307 307 310 311 313 311 311 312 310 312 313 312 313 313 316 320 322 319 318 318 318 321 320 322 316 315 318 316 315 317 314 317 315 313 313 314 309
306 307 306 308 308 309 310 309 303 305 308 312 313 314 311 312 311 311 310 310 312 314 315 318 320 319 319 321 323 321 323 320 318 314 317 315 315 310 315 314 314 314 311 309 307
301 304 306 307 309 308 308 303 303 307 306 307 308 309 312 310 311 311 310 309 308 312 319 317 318 319 322 319 317 320 321 322 324 321 314 313 316 309 310 310 312 312 309 306 304
300 301 304 306 306 305 302 302 304 307 306 306 306 306 308 312 313 311 311 308 310 310 315 316 317 320 321 320 315 321 321 321 321 313 319 320 318 307 303 304 304 309 306 304 303
298 303 301 301 298 300 301 303 302 302 305 306 305 305 307 308 307 309 311 311 307 312 311 315 314 317 319 319 320 322 322 320 322 322 321 319 318 311 307 306 305 305 304 303 302
294 297 298 305 299 298 301 302 302 303 302 303 304 304 305 307 307 307 307 307 307 308 309 316 316 313 313 316 318 321 321 321 323 321 321 319 317 316 312 306 304 304 304 303 303
297 297 291 287 297 297 300 301 302 302 302 303 303 303 304 303 304 305 306 307 308 309 310 313 318 315 316 314 316 319 321 321 320 322 321 320 318 314 312 304 304 304 304 303 304
295 294 295 299 296 299 299 300 301 301 302 301 302 303 304 303 302 301 304 307 309 310 311 313 316 316 318 315 315 319 320 321 321 320 320 322 319 310 309 307 304 303 303 304 304

GFSSW_925_thetae_126.txt.gz
Theta_e
314 315 315 311 312 320 321 323 322 322 323 327 330 329 331 331 331 325 324 327 324 322 322 323 324 318 316 316 316 313 318 323 325 321 321 319 321 319 321 324 328 329 325 327 334
314 312 313 314 309 317 320 322 323 322 322 323 327 329 330 331 329 323 325 323 322 322 321 323 322 315 316 318 317 317 318 321 322 318 320 320 320 320 326 327 328 330 329 329 333
312 312 312 314 314 312 318 320 323 323 322 322 324 328 330 330 325 325 327 321 321 322 321 323 321 314 318 316 319 319 320 319 321 315 317 319 318 318 323 326 323 327 329 330 332
314 311 312 313 315 311 315 319 321 323 322 322 324 325 329 325 334 326 327 322 320 320 321 319 316 318 319 321 317 323 320 321 321 315 315 318 316 318 321 321 318 321 327 330 331
312 311 311 312 314 314 312 318 318 322 323 323 324 325 324 325 326 323 325 322 320 320 321 319 318 318 323 318 318 320 320 320 320 318 315 313 316 317 317 315 321 325 328 328 330
312 311 312 310 314 314 311 316 318 319 322 322 324 326 322 327 321 321 324 321 321 320 319 320 320 319 323 323 321 321 319 321 319 315 313 315 314 314 314 316 325 327 327 326 328
312 311 312 310 312 313 311 313 317 318 320 322 323 324 321 323 321 321 322 324 323 321 320 320 321 320 318 323 322 325 324 319 320 316 315 314 315 315 313 320 324 326 325 325 326
312 311 311 310 311 313 311 310 315 317 319 321 322 321 322 321 321 321 322 321 321 321 320 320 321 321 321 318 317 324 326 332 324 313 315 315 320 317 313 322 321 324 324 324 325
311 312 312 310 311 313 311 311 313 317 317 319 321 319 321 319 321 321 322 321 321 321 321 320 322 323 321 321 322 317 323 326 328 314 316 316 318 316 313 320 318 320 323 324 324
313 312 311 310 311 312 310 309 314 316 317 318 316 317 315 320 319 320 320 321 321 320 320 321 323 327 324 324 330 322 322 321 326 322 315 316 315 314 315 313 316 315 317 322 324
309 311 310 310 310 312 310 311 311 312 310 312 314 313 313 318 319 320 320 321 320 321 323 321 326 328 327 326 322 319 321 321 320 320 317 316 316 315 314 313 313 312 311 313 322
307 311 310 310 310 311 311 310 309 309 313 308 309 311 313 317 320 319 320 322 322 324 321 323 326 323 324 326 325 323 324 323 321 320 319 320 321 318 315 314 314 313 313 311 311
308 311 310 310 310 311 310 309 309 310 311 310 309 311 314 316 318 319 319 321 323 324 322 325 322 320 322 325 326 326 327 324 323 319 316 318 319 318 316 315 316 313 314 313 312
308 312 310 310 311 310 309 309 309 308 308 311 310 309 311 313 316 317 319 320 322 323 323 323 320 321 323 324 323 326 322 323 325 326 326 318 321 313 318 317 316 315 313 315 313
306 311 310 310 310 310 309 309 308 306 311 306 308 308 309 313 312 316 318 318 321 322 321 322 320 322 324 323 323 325 322 324 326 324 323 323 324 320 319 319 318 318 316 313 315
309 311 310 310 310 309 309 309 308 308 309 310 309 311 313 313 312 316 319 316 316 321 320 320 317 320 321 320 321 319 322 322 320 323 327 322 323 319 318 319 319 318 317 315 314
306 310 310 309 310 309 308 308 310 310 300 310 311 311 312 314 313 314 317 320 321 322 322 321 321 318 318 322 321 322 322 326 326 327 325 314 321 320 315 315 316 316 315 313 312
308 310 309 308 309 309 308 309 310 298 301 308 308 310 310 311 311 313 316 317 317 316 314 320 322 320 317 321 323 322 322 322 324 323 319 316 320 317 315 316 314 312 313 312 311
310 309 307 307 308 309 309 310 305 301 305 310 309 310 311 310 310 311 311 314 314 317 319 317 318 317 317 318 320 323 325 317 316 299 312 315 315 312 311 314 314 313 311 313 313
310 308 308 308 309 308 308 307 303 306 307 308 309 309 310 311 309 310 310 309 311 314 315 317 321 317 317 318 318 321 318 324 318 321 317 315 314 317 314 315 316 314 313 311 310
308 308 308 308 308 308 309 307 304 305 308 308 310 309 308 310 308 311 308 309 308 309 315 318 320 318 318 321 322 321 323 321 320 315 317 317 316 309 313 313 315 314 313 310 309
302 305 308 308 308 307 308 302 306 307 307 309 310 309 308 308 309 309 309 308 307 309 312 315 316 319 322 315 317 320 320 322 325 321 315 313 318 308 309 309 309 308 308 308 306
299 306 308 306 307 307 304 303 306 306 306 307 308 308 309 308 308 309 308 306 307 310 313 312 315 317 318 316 317 321 321 320 321 315 320 321 320 306 303 303 302 303 305 306 304
301 306 299 304 300 304 305 305 304 304 305 304 304 305 308 309 306 306 310 309 307 309 312 314 312 314 313 315 316 321 321 321 321 324 323 320 319 316 310 307 304 303 302 304 303
297 299 298 303 300 300 301 303 304 304 304 304 304 304 306 308 307 305 307 308 307 308 309 312 315 312 313 313 313 318 320 320 322 321 322 320 319 318 315 309 307 304 303 303 303
299 300 297 299 298 303 304 301 304 301 303 303 303 303 303 306 306 305 305 307 308 308 308 310 312 314 313 311 311 312 311 314 321 322 321 320 320 317 313 311 310 306 304 303 302
293 294 297 301 298 299 296 300 302 301 301 302 302 303 304 303 303 303 305 305 306 306 309 311 312 311 313 312 313 314 312 311 312 319 321 321 319 317 315 312 311 312 311 304 303

GFSSW_925_thetae_129.txt.gz
Theta_e
317 314 314 315 309 317 320 323 323 321 322 328 330 329 330 332 333 330 327 330 329 323 322 323 322 319 318 315 315 313 320 323 324 320 320 317 320 319 321 328 326 327 325 325 332
313 316 313 314 314 308 318 320 323 323 321 324 328 329 330 331 330 325 330 328 327 323 322 322 321 316 317 318 316 317 320 321 321 318 320 319 320 321 325 328 328 329 328 328 333
311 314 315 312 314 313 310 319 321 323 321 322 324 327 329 329 327 327 330 324 323 322 321 322 320 315 319 316 318 317 320 318 319 315 315 319 318 320 324 327 325 326 328 329 332
313 313 314 315 312 313 310 316 320 322 322 321 322 324 328 327 333 326 328 322 321 322 321 320 317 317 320 323 317 323 320 321 320 314 315 318 316 318 322 323 318 321 326 329 331
313 311 313 313 313 312 313 312 319 320 323 322 322 325 326 326 326 323 324 322 319 320 321 316 318 319 323 319 317 320 321 319 319 319 318 313 316 318 318 317 319 321 327 330 331
313 312 312 313 313 311 313 310 317 319 322 322 322 324 324 327 323 323 323 321 319 320 319 319 317 318 321 321 321 321 318 320 319 315 313 315 314 312 314 314 323 326 327 328 330
314 313 312 312 311 312 313 313 314 318 321 321 322 323 322 325 322 322 324 325 324 320 321 321 321 319 319 324 321 324 326 323 319 319 317 313 316 314 313 316 319 324 325 325 327
314 313 312 312 311 312 313 313 313 318 319 321 322 323 322 320 321 321 323 322 322 322 320 321 321 321 320 317 315 325 326 331 327 313 315 316 330 317 312 317 317 320 323 324 325
315 313 312 311 310 310 313 312 312 317 318 319 322 320 323 319 322 322 322 322 322 321 321 321 322 323 323 321 322 317 322 327 329 314 315 315 321 316 313 317 316 316 320 323 324
310 312 313 311 310 310 313 312 312 316 317 318 317 319 316 321 320 321 321 321 321 320 321 321 323 327 325 326 332 324 322 321 326 323 314 316 316 313 313 313 316 314 315 319 322
310 309 312 311 309 310 313 313 311 312 315 315 317 314 314 318 320 320 320 320 320 322 326 323 326 327 327 326 323 318 320 320 319 320 316 316 316 316 314 313 314 313 312 312 315
309 308 312 310 310 310 313 311 309 309 314 308 311 312 315 317 321 320 320 322 322 325 322 324 328 323 324 326 327 324 324 323 320 319 319 320 320 319 315 314 314 315 315 313 312
309 308 311 311 310 312 311 309 309 310 309 311 310 314 316 316 320 321 320 321 323 323 323 326 322 322 324 326 327 326 327 325 324 321 318 317 319 318 315 315 316 313 316 316 315
307 307 307 311 311 311 310 308 309 308 304 311 311 310 313 314 318 318 319 320 322 323 321 323 320 323 324 325 324 326 322 324 325 326 326 317 322 319 311 314 315 315 314 315 315
307 308 307 311 310 311 309 309 310 306 310 307 309 308 310 315 313 318 318 318 322 323 322 322 321 322 324 323 322 324 321 323 323 325 324 323 326 323 317 317 315 315 314 314 314
308 307 309 311 310 310 309 309 307 310 311 311 309 311 312 312 313 317 319 317 316 321 320 319 317 319 320 320 321 319 321 321 321 323 328 326 325 320 318 318 317 317 316 315 313
307 305 303 310 311 309 309 308 309 311 302 310 311 312 311 312 314 314 319 321 322 323 323 321 321 318 318 321 320 322 322 326 327 325 327 313 322 323 314 313 316 316 315 313 312
306 305 305 309 309 308 309 309 310 300 304 306 309 311 311 311 312 314 314 317 318 316 319 321 324 320 318 321 323 324 323 325 326 324 320 314 320 318 314 315 315 312 312 310 311
305 305 309 309 308 309 310 311 307 298 304 307 309 311 310 310 311 312 313 312 315 316 316 319 319 316 317 317 320 322 325 316 315 299 312 314 314 312 311 312 313 313 312 312 311
306 308 308 308 308 308 309 308 303 303 306 306 310 309 310 311 310 308 311 309 311 313 314 314 317 315 316 317 318 321 320 324 318 323 319 316 313 317 313 313 313 313 314 314 310
306 304 309 308 309 309 310 301 307 305 306 305 306 310 307 310 307 310 307 306 309 310 313 316 315 317 316 319 321 321 323 321 321 319 321 315 316 308 313 313 312 311 311 309 308
304 304 308 309 310 308 309 303 307 308 306 308 306 305 305 307 309 309 306 305 305 310 314 313 316 317 316 316 314 318 320 320 323 319 315 314 321 308 308 308 308 308 307 306 305
303 308 309 308 307 307 304 305 306 308 307 308 306 307 307 306 308 307 306 305 305 309 311 312 314 310 316 316 316 319 319 319 319 317 317 318 320 308 308 307 306 304 304 302 302
306 309 308 301 302 306 305 307 307 304 305 304 306 307 306 306 304 306 307 308 306 307 311 313 309 311 310 312 314 320 320 320 321 323 322 321 319 316 310 309 308 308 305 303 303
299 301 300 305 305 306 305 305 307 307 305 303 305 306 306 309 307 302 307 308 306 310 310 311 313 310 309 311 312 314 316 319 321 320 323 320 318 318 316 315 314 312 307 310 311
301 302 299 300 302 303 305 305 307 302 305 305 304 306 306 306 307 306 306 309 311 308 307 308 309 311 312 310 309 311 311 311 313 316 317 319 319 317 315 312 309 306 307 309 310
293 295 303 303 302 301 297 303 302 300 301 302 303 303 304 304 304 305 305 305 305 309 311 312 310 307 311 308 309 312 311 311 309 309 311 313 313 313 315 314 310 310 309 311 311

GFSSW_925_thetae_132.txt.gz
Theta_e
314 316 315 314 315 309 315 321 323 323 321 323 328 330 329 332 333 332 332 331 330 323 322 322 322 319 322 321 320 319 331 333 333 328 327 321 328 324 325 331 332 332 330 329 335
313 315 316 313 315 314 309 318 322 323 322 321 326 329 329 331 331 328 331 331 329 328 322 323 324 322 325 324 322 325 329 330 327 325 325 323 324 326 329 331 332 332 332 331 336
314 314 312 316 313 314 314 311 320 323 323 321 324 328 329 329 328 329 330 331 330 325 321 322 321 322 326 325 324 323 325 326 324 320 319 322 323 326 328 331 330 331 331 332 335
315 313 313 312 315 312 314 309 315 320 322 323 322 325 329 329 336 327 328 329 324 322 321 320 321 324 326 328 324 326 323 324 323 317 319 323 322 325 327 327 325 327 329 333 335
315 315 313 313 312 314 312 314 308 319 321 323 321 323 325 327 328 322 325 325 321 321 321 321 323 324 326 325 323 328 326 323 323 322 322 317 322 324 324 326 321 321 328 333 334
314 315 314 313 313 314 313 312 312 316 320 322 322 325 324 329 324 324 321 321 319 320 321 320 322 322 325 325 325 324 324 326 323 321 318 319 322 317 320 319 322 325 327 331 333
314 314 314 313 314 312 314 312 313 311 319 321 322 323 322 324 323 325 323 322 320 321 323 322 321 321 325 327 324 324 327 326 326 327 325 317 323 320 322 318 320 324 327 330 332
314 314 314 313 313 312 313 313 312 310 318 321 322 322 322 322 322 324 322 321 321 322 321 322 323 322 322 319 322 328 328 331 328 323 324 323 333 328 322 319 322 321 324 328 330
312 313 314 314 312 312 311 313 312 311 316 319 322 321 322 319 322 324 323 323 322 322 322 322 323 324 324 326 328 325 332 330 329 321 321 322 332 330 322 318 321 323 322 323 326
311 312 314 314 312 312 311 312 313 311 316 317 317 320 317 322 322 322 323 322 322 322 323 324 325 326 326 329 335 332 328 326 328 325 320 326 325 326 320 319 322 323 321 321 324
310 311 311 314 312 312 311 314 313 313 316 316 318 317 318 318 321 321 322 322 321 323 325 324 324 323 322 325 325 325 324 325 322 323 322 324 324 323 323 322 322 323 322 321 321
309 312 311 314 313 311 312 313 311 312 316 313 315 314 316 320 322 321 322 323 324 325 325 326 325 321 321 324 326 325 326 324 323 321 322 324 325 324 323 322 322 323 324 323 321
309 309 309 312 313 311 312 313 310 312 314 312 312 316 318 317 320 322 321 322 324 325 326 326 324 322 324 325 328 326 325 325 325 324 324 323 326 325 323 321 321 322 322 323 325
306 307 308 309 313 311 312 311 309 310 315 314 314 314 317 317 320 319 320 321 323 324 324 325 320 324 325 326 325 327 323 324 324 323 329 322 330 325 322 320 318 319 320 320 321
306 307 307 310 310 311 311 309 309 308 316 311 312 309 313 318 319 319 318 319 323 323 323 323 324 325 326 326 324 325 323 324 324 325 325 323 327 323 322 323 322 321 321 319 318
307 306 307 308 310 309 310 309 308 311 313 311 311 314 316 314 314 319 320 317 317 322 321 322 319 323 324 323 323 322 324 324 325 326 329 324 324 323 323 323 322 321 321 320 319
306 307 306 307 310 310 308 309 310 314 308 311 313 314 315 315 315 318 320 321 319 322 324 322 321 319 320 324 323 324 325 329 331 329 324 319 324 324 322 321 319 320 320 319 319
305 307 306 306 307 308 308 311 315 309 309 309 311 314 315 314 314 316 319 321 315 317 321 323 325 322 320 322 324 324 323 325 325 327 323 318 324 323 321 321 321 319 318 317 317
305 306 306 309 309 309 310 313 310 310 308 311 311 313 314 314 314 315 317 318 319 317 319 322 320 319 320 319 321 324 325 321 320 309 321 321 320 318 318 317 316 316 317 317 318
306 305 305 305 309 309 310 311 307 305 308 310 311 310 313 314 313 314 315 313 316 317 314 315 319 317 319 319 320 322 320 324 321 329 326 321 321 320 318 317 318 317 317 316 316
305 306 306 304 308 310 311 308 307 307 308 310 310 311 310 313 312 313 313 311 311 317 316 317 317 319 319 321 321 322 324 321 323 324 328 325 322 318 319 318 317 315 314 313 312
302 306 304 304 310 308 309 308 308 308 308 308 308 308 311 311 311 312 313 311 310 311 317 316 316 319 318 318 317 319 321 321 324 323 321 321 321 316 316 314 312 314 314 311 308
302 307 305 308 309 308 307 309 308 309 309 308 308 308 308 310 311 310 309 307 308 313 312 315 316 318 315 316 316 320 320 320 320 320 322 323 320 315 315 315 314 311 313 312 310
305 308 307 307 306 307 309 309 309 307 306 307 308 308 308 310 306 310 309 309 308 311 312 314 313 314 313 311 313 316 317 319 321 322 321 321 320 318 317 317 318 316 317 317 316
300 302 299 305 307 309 309 308 309 309 306 306 308 308 309 309 308 308 309 308 309 309 311 313 315 312 313 311 314 317 318 316 318 320 319 318 319 318 317 317 317 315 315 315 316
301 302 302 304 306 308 308 308 309 306 307 306 310 308 308 308 308 309 309 309 310 310 312 311 316 313 313 312 312 313 312 313 315 318 320 321 322 319 317 316 316 316 316 316 316
297 300 307 306 307 308 308 308 306 305 303 305 308 308 308 307 307 307 308 308 310 310 311 312 312 312 313 312 312 314 312 311 311 311 314 318 317 316 314 314 312 311 311 312 313

GFSSW_925_thetae_135.txt.gz
Theta_e
314 315 316 316 315 315 310 317 322 323 323 321 324 329 330 329 333 333 334 333 332 330 322 325 324 323 324 325 324 325 329 332 333 333 333 326 331 328 328 331 332 333 331 331 337
317 315 314 316 315 315 315 310 316 322 323 323 321 325 330 329 331 331 332 333 332 329 325 325 327 324 326 327 325 326 329 330 330 331 330 326 326 328 330 330 332 333 332 332 337
315 316 316 314 315 314 313 315 309 319 323 323 321 323 328 329 330 330 330 331 330 328 326 324 324 325 327 327 326 326 328 327 328 327 324 326 325 325 327 328 328 331 333 333 336
312 315 315 316 313 316 312 315 314 312 321 323 322 322 327 329 333 328 329 330 330 325 323 326 324 325 328 328 327 327 325 325 325 320 322 324 326 326 327 327 327 328 330 333 337
313 312 315 316 315 313 315 312 314 310 319 322 322 322 325 327 328 325 328 329 328 325 325 325 327 326 329 327 327 328 326 326 325 322 323 322 323 326 327 327 324 323 329 333 334
312 312 313 315 315 313 314 314 313 312 313 320 322 322 324 328 325 325 327 327 323 324 324 324 325 326 326 327 327 327 327 327 326 325 323 323 324 321 324 325 326 326 327 329 332
312 311 312 315 314 314 313 313 312 314 308 319 321 322 323 324 324 326 324 323 322 323 323 324 323 324 326 327 325 326 328 327 327 326 326 323 326 325 323 320 322 324 326 327 329
310 311 312 315 315 315 313 313 312 312 311 317 320 321 323 321 324 325 323 322 322 321 322 322 323 324 326 324 326 328 328 331 328 328 327 326 326 327 326 324 323 323 325 326 328
309 309 312 314 315 315 313 314 314 312 312 315 319 321 323 320 323 324 324 323 323 323 322 322 322 324 324 326 329 329 331 330 328 328 327 327 326 325 328 328 326 325 326 326 326
308 308 310 312 314 314 314 313 313 312 313 316 318 321 319 323 322 324 324 323 324 324 325 324 326 326 327 330 335 331 331 329 330 329 327 327 327 325 326 325 327 328 328 328 326
307 308 309 312 314 315 314 315 315 314 313 314 317 318 315 319 321 323 323 323 323 324 327 324 327 326 324 327 325 328 328 330 327 324 325 327 327 326 325 324 324 325 327 328 326
306 308 309 312 314 315 314 315 314 313 315 313 315 317 317 318 321 322 323 324 325 326 325 326 327 325 322 322 322 324 326 328 326 323 325 326 327 326 326 325 325 324 323 323 326
306 307 309 311 314 315 313 314 312 312 314 313 314 316 317 318 321 323 323 323 324 326 327 327 326 324 323 323 324 322 326 325 327 325 325 325 327 326 326 325 325 324 324 322 322
305 307 309 311 313 314 313 313 313 312 316 315 314 315 317 316 318 320 321 322 323 326 325 326 323 323 323 325 324 325 325 326 326 326 327 323 329 326 325 326 326 324 323 323 323
305 303 304 311 312 314 312 312 312 311 318 315 313 314 317 318 317 321 320 320 324 323 323 325 323 324 324 324 322 323 323 325 326 326 326 325 326 324 323 323 323 323 323 323 321
306 303 307 310 310 313 312 311 310 313 318 315 313 317 318 318 319 321 321 316 319 322 323 322 322 323 324 323 323 323 325 325 325 325 332 324 325 324 323 322 322 323 323 323 323
304 305 308 310 310 310 312 310 315 316 310 313 315 315 316 317 318 320 321 321 318 323 325 322 324 322 322 325 325 325 326 329 331 331 326 321 322 323 321 322 322 322 321 321 320
302 304 305 309 308 310 310 312 316 313 312 311 314 315 317 316 317 319 321 318 316 315 321 325 326 324 322 324 326 326 325 325 328 329 324 320 323 321 321 321 321 321 321 321 319
303 307 308 307 308 309 311 313 315 312 311 312 313 315 317 315 316 318 318 319 317 317 321 322 324 321 321 322 322 325 327 322 324 316 323 321 320 319 320 320 319 318 318 319 318
307 306 306 306 308 308 308 312 310 310 310 313 314 315 318 316 317 316 318 317 319 317 317 319 323 320 319 321 321 322 321 325 324 327 324 319 319 319 319 319 318 319 318 317 315
305 306 305 306 306 310 310 310 308 308 310 313 313 314 314 317 316 317 316 315 317 318 317 317 319 320 320 322 322 322 324 322 322 324 324 322 320 318 319 319 317 316 316 315 312
305 305 306 305 304 306 309 307 307 310 310 309 310 312 315 313 315 316 315 315 314 317 320 316 317 322 321 318 319 320 321 322 323 325 324 323 324 318 318 317 315 315 315 313 310
301 306 305 304 308 308 306 309 309 310 309 310 310 310 310 314 315 314 312 310 310 313 318 316 319 321 322 318 318 320 320 321 320 321 325 325 321 316 316 316 316 316 318 318 316
304 307 304 302 300 308 309 311 310 309 309 309 309 309 311 313 310 314 311 309 309 311 313 315 317 317 318 314 314 318 317 318 319 321 321 320 317 315 315 316 316 317 317 316 317
303 302 301 304 303 310 310 311 311 310 309 308 309 310 311 312 310 312 311 310 310 310 313 313 315 313 313 312 312 314 315 315 316 318 318 317 317 317 316 316 318 317 317 316 316
304 304 302 303 305 310 310 310 310 308 309 309 310 309 309 311 310 311 310 310 310 310 313 312 314 312 314 312 312 313 315 316 317 316 316 317 319 317 315 315 317 315 314 313 311
300 303 306 306 308 310 312 310 309 307 308 309 309 309 309 309 309 308 309 309 309 310 311 313 313 314 314 312 312 314 313 312 312 313 315 317 316 316 316 316 315 311 311 311 310

GFSSW_925_thetae_138.txt.gz
Theta_e
317 316 315 315 316 315 316 312 316 322 323 323 322 325 329 330 329 332 333 333 333 333 332 325 326 326 324 326 324 325 327 331 332 333 332 328 330 328 328 331 331 331 331 334 338
315 316 316 315 314 315 315 316 312 315 322 323 323 321 325 329 330 329 331 332 333 332 327 326 327 327 325 327 326 325 328 330 329 329 329 325 327 328 329 328 330 332 331 337 337
313 314 317 316 315 313 315 316 315 311 316 322 323 322 323 327 329 330 329 331 332 332 328 328 325 326 327 327 327 327 327 326 326 324 322 324 326 324 327 327 327 330 332 336 336
312 313 313 316 316 315 313 314 314 315 309 319 322 322 322 326 333 329 329 329 331 330 327 327 328 327 328 329 327 328 325 325 325 321 321 324 324 326 324 325 325 325 331 334 334
314 312 313 313 316 316 315 313 313 314 311 313 321 322 324 327 327 326 329 331 330 329 327 327 328 328 328 327 327 328 327 325 325 323 322 323 323 322 324 324 324 324 330 331 335
313 313 312 312 314 316 315 314 314 313 315 310 321 322 322 326 323 326 326 329 329 329 328 327 326 324 327 327 327 327 327 327 326 325 324 324 323 323 322 321 323 323 325 329 330
311 313 312 311 312 315 315 315 312 313 313 310 318 320 322 324 324 326 325 327 326 327 327 326 325 324 326 327 326 326 327 326 326 326 326 324 324 324 322 321 320 323 323 324 327
310 310 311 312 311 313 316 315 313 313 312 311 314 319 322 322 322 325 325 324 324 324 324 323 323 325 325 325 326 327 327 330 327 326 326 324 328 323 322 321 320 319 320 322 324
308 308 309 310 312 312 315 316 313 312 312 313 315 318 321 321 322 324 325 323 323 323 323 322 322 324 326 327 329 329 331 330 328 326 327 326 328 325 322 321 322 320 320 320 322
306 307 307 308 310 313 315 316 313 312 313 314 316 319 318 320 321 323 323 323 324 324 324 324 325 326 325 328 333 331 331 329 328 326 328 328 326 324 323 325 325 325 324 323 322
306 306 307 307 309 311 315 316 315 314 313 315 313 315 317 319 321 322 323 323 323 324 327 326 327 328 326 324 324 326 324 329 328 325 325 327 327 325 324 323 321 321 322 322 323
305 306 306 305 308 310 315 315 313 313 315 314 312 315 316 318 322 322 322 325 325 326 325 326 328 324 323 322 323 325 324 324 326 324 324 324 325 323 323 323 322 322 321 319 319
304 305 306 306 307 310 314 315 312 313 315 314 314 316 316 317 319 319 322 323 324 325 326 325 323 323 323 324 325 324 324 325 326 324 324 325 326 325 323 323 323 323 322 321 320
304 304 305 304 308 310 314 315 312 312 316 316 316 314 316 317 318 318 319 322 323 325 324 325 322 325 324 325 323 326 321 323 325 324 328 324 330 321 321 322 322 323 323 322 321
303 304 305 305 308 310 313 314 312 313 317 315 314 313 316 317 318 318 319 319 319 323 323 325 324 326 327 325 323 326 321 322 324 325 325 325 327 323 320 321 321 320 320 320 319
303 304 305 306 308 310 313 313 313 315 317 316 315 316 317 318 317 319 320 317 319 322 322 322 320 322 323 323 322 321 323 324 325 326 328 325 324 322 321 321 320 319 319 319 319
300 303 304 306 306 310 312 313 316 316 313 314 315 316 316 318 318 319 322 320 317 322 325 323 323 321 321 322 322 324 325 327 329 327 328 321 323 322 319 318 320 321 320 318 315
303 302 304 304 305 308 312 315 318 315 315 313 313 315 317 318 318 318 319 320 315 314 319 324 324 323 322 323 325 325 324 326 328 326 323 320 320 319 318 318 317 318 318 316 314
303 303 303 305 304 304 312 313 316 313 312 314 313 314 315 316 316 317 316 318 318 312 320 322 324 321 322 322 323 326 326 322 321 310 319 320 320 318 316 317 318 317 316 315 312
303 302 303 303 302 309 312 313 310 312 312 313 314 315 316 316 316 317 318 316 317 312 314 315 321 320 322 322 322 323 321 324 323 323 322 317 317 317 318 318 317 315 314 312 311
302 300 303 302 308 311 312 310 307 311 312 313 314 315 314 315 314 316 315 314 316 317 317 317 318 318 320 323 323 322 325 323 323 320 323 321 317 316 316 315 314 313 312 310 310
302 303 305 309 306 302 309 306 309 310 312 312 312 313 312 313 313 316 315 314 315 315 319 317 316 320 321 319 318 321 322 322 322 324 320 320 320 316 316 313 313 312 312 311 310
298 305 305 302 307 308 305 307 310 311 310 312 313 313 313 312 314 314 313 310 315 317 318 316 316 320 321 318 320 321 319 321 321 319 320 319 317 313 312 313 313 313 313 313 314
303 305 302 298 299 307 309 309 311 310 310 310 310 311 313 314 311 314 311 309 309 315 315 315 317 318 321 318 318 321 320 320 321 322 320 321 319 317 314 311 313 314 314 312 312
303 302 301 305 304 308 309 310 309 310 309 309 310 310 312 312 310 311 310 310 310 311 315 316 316 317 316 314 314 313 316 318 320 318 319 317 316 315 312 313 313 313 313 313 312
303 302 302 303 302 307 310 310 309 309 309 309 310 311 310 310 309 311 311 310 311 310 312 312 311 312 311 312 311 313 314 315 315 314 314 315 315 313 312 312 313 314 312 308 307
302 304 304 304 303 306 310 309 308 308 309 309 310 309 310 309 308 309 309 309 309 311 313 312 310 308 307 311 311 312 311 311 312 314 314 315 314 312 312 312 311 309 308 308 308